This is the latest recevied weather packets stored in our database for station/object N5XJB. If no packets are shown the sender has not sent any weather packets the latest 10 day(s).
| Time | Temp. | Humidity | Pressure | Rain* | Wind** | Luminosity | Snow |
|---|---|---|---|---|---|---|---|
| 1777209384 | 25.56° C | 91% | 1010.4 hPa | 0 mm | - | 47 W/m² | - |
| 1777209080 | 25.56° C | 92% | 1010.4 hPa | 0 mm | - | 44 W/m² | - |
| 1777208776 | 25.56° C | 92% | 1010.4 hPa | 0 mm | - | 45 W/m² | - |
| 1777208473 | 25.56° C | 92% | 1010.4 hPa | 0 mm | - | 44 W/m² | - |
| 1777208170 | 25° C | 92% | 1010 hPa | 0 mm | - | 42 W/m² | - |
| 1777207864 | 25° C | 92% | 1010 hPa | 0 mm | - | 43 W/m² | - |
| 1777207559 | 25° C | 92% | 1010.4 hPa | 0 mm | - | 39 W/m² | - |
| 1777207255 | 25° C | 92% | 1010.4 hPa | 0 mm | - | 30 W/m² | - |
| 1777206950 | 25° C | 92% | 1010.4 hPa | 0 mm | - | 34 W/m² | - |
| 1777206645 | 25° C | 93% | 1009.7 hPa | 0 mm | - | 22 W/m² | - |
| 1777206340 | 25° C | 93% | 1009.7 hPa | 0 mm | - | 13 W/m² | - |
| 1777206036 | 25° C | 92% | 1009.7 hPa | 0 mm | - | 10 W/m² | - |
| 1777205733 | 25° C | 92% | 1009.7 hPa | 0 mm | - | 7 W/m² | - |
| 1777205430 | 25° C | 92% | 1009.7 hPa | 0 mm | - | 7 W/m² | - |
| 1777205124 | 25° C | 92% | 1009.7 hPa | 0 mm | - | 5 W/m² | - |
| 1777204821 | 25° C | 92% | 1009.3 hPa | 0 mm | - | 4 W/m² | - |
| 1777204516 | 25° C | 92% | 1009.3 hPa | 0 mm | - | 3 W/m² | - |
| 1777204212 | 25° C | 92% | 1009.7 hPa | 0 mm | - | 2 W/m² | - |
| 1777203908 | 25° C | 92% | 1009.3 hPa | 0 mm | - | 1 W/m² | - |
| 1777203603 | 25° C | 92% | 1009.7 hPa | 0 mm | - | 0 W/m² | - |
| 1777203299 | 25° C | 92% | 1009.3 hPa | 0 mm | - | 0 W/m² | - |
| 1777202995 | 25° C | 92% | 1009.3 hPa | 0 mm | - | 0 W/m² | - |
| 1777202692 | 25° C | 92% | 1009.7 hPa | 0 mm | - | 0 W/m² | - |
| 1777202390 | 25° C | 92% | 1009.3 hPa | 0 mm | - | 0 W/m² | - |
| 1777202085 | 25° C | 92% | 1009 hPa | 0 mm | - | 0 W/m² | - |
* Rain latest hour (hover to see other rain measurements)
** Current wind speed in m/s (hover to see current wind gust speed)